DW2465 Weather Reports


time (UTC)temp
C
wind
direction
speed
KPH
gust
KPH
rain 1hr
cm
rain 24hr
cm
rain mn
cm
humidity
%
barometer
mb
20260901023016 22 242 0.0 0.0 0.00 0.00 0.00 78 1010.3
20260901021528 22 240 0.0 0.0 0.00 0.00 0.00 77 1010.1
20260901020015 22 269 0.0 0.0 0.00 0.00 0.00 77 1010.1
20260901014511 23 269 0.0 0.0 0.00 0.00 0.00 75 1010.0
20260901013009 23 271 0.0 0.0 0.00 0.00 0.00 74 1009.7
20260901011511 24 275 0.0 0.0 0.00 0.00 0.00 73 1009.6
20260901010022 25 262 0.0 0.0 0.00 0.00 0.00 71 1009.6
20260901004505 25 263 0.0 0.0 0.00 0.00 0.00 68 1009.6
20260901003004 26 261 0.0 0.0 0.00 0.00 0.00 66 1009.4
20260901001504 26 253 0.0 0.0 0.00 0.00 0.00 65 1009.6
20260901000002 27 262 0.0 0.0 0.00 0.00 0.00 62 1009.5
20260831234600 27 258 0.0 0.0 0.00 0.00 0.00 60 1009.5
20260831233100 28 252 0.0 0.0 0.00 0.00 0.00 58 1009.4
20260831231612 28 252 0.0 0.0 0.00 0.00 0.00 54 1009.4
20260831230059 30 253 0.0 0.0 0.00 0.00 0.00 50 1009.4
20260831224555 28 272 0.0 0.0 0.00 0.00 0.00 51 1009.4
20260831223102 29 296 0.0 0.0 0.00 0.00 0.00 51 1009.3
20260831221558 28 261 0.0 0.0 0.00 0.00 0.00 53 1009.4
20260831220053 29 274 0.0 0.0 0.00 0.00 0.00 52 1009.0
20260831214521 30 284 0.0 0.0 0.00 0.00 0.00 50 1009.0
20260831213031 30 296 0.0 0.0 0.00 0.00 0.00 47 1008.8
20260831211517 30 288 0.0 0.0 0.00 0.00 0.00 47 1008.8
20260831210017 30 298 0.0 0.0 0.00 0.00 0.00 45 1008.8
20260831204517 30 312 0.0 0.0 0.00 0.00 0.00 47 1008.7
20260831203013 30 273 0.0 0.0 0.00 0.00 0.00 48 1008.7
20260831201511 30 9 0.0 0.0 0.00 0.00 0.00 48 1008.7
20260831200018 30 341 0.0 0.0 0.00 0.00 0.00 48 1008.7
20260831194510 30 332 0.0 0.0 0.00 0.00 0.00 47 1008.6
20260831193010 30 284 0.0 0.0 0.00 0.00 0.00 50 1008.7
20260831191501 29 316 0.0 0.0 0.00 0.00 0.00 54 1008.6
20260831190107 29 275 0.0 0.0 0.00 0.00 0.00 51 1008.5
20260831184600 29 304 0.0 0.0 0.00 0.00 0.00 54 1008.6
20260831183058 28 311 0.0 0.0 0.00 0.00 0.00 53 1008.6
20260831181556 28 331 0.0 0.0 0.00 0.00 0.00 60 1008.6
20260831180049 28 285 0.0 0.0 0.00 0.00 0.00 62 1008.7
20260831174548 28 269 0.0 0.0 0.00 0.00 0.00 65 1008.7
20260831173043 28 309 0.0 0.0 0.00 0.00 0.00 68 1008.8
20260831171544 27 348 0.0 0.0 0.00 0.00 0.00 72 1008.8
20260831170007 26 11 0.0 0.0 0.00 0.00 0.00 74 1008.9
20260831164503 26 306 0.0 0.0 0.00 0.00 0.00 78 1008.8
20260831163058 26 302 0.0 0.0 0.00 0.00 0.00 79 1008.8
20260831161558 26 323 0.0 0.0 0.00 0.00 0.00 81 1008.6
20260831160056 26 311 0.0 0.0 0.00 0.00 0.00 80 1008.7
20260831154555 25 302 0.0 0.0 0.00 0.00 0.00 82 1008.6
20260831153053 25 277 0.0 0.0 0.00 0.00 0.00 83 1008.6
20260831151553 25 298 0.0 0.0 0.00 0.00 0.00 83 1008.3
20260831150046 25 274 0.0 0.0 0.00 0.00 0.00 84 1008.0
20260831144600 25 297 0.0 0.0 0.00 0.00 0.00 84 1007.7
20260831143036 24 257 0.0 0.0 0.00 0.00 0.00 88 1007.6
20260831141532 23 302 0.0 0.0 0.00 0.00 0.00 90 1007.7
20260831140031 23 260 0.0 0.0 0.00 0.00 0.00 91 1007.6
20260831134526 22 263 0.0 0.0 0.00 0.00 0.00 93 1007.2
20260831133022 22 257 0.0 0.0 0.00 0.00 0.00 94 1007.0
20260831131522 22 259 0.0 0.0 0.00 0.00 0.00 95 1007.0
20260831130019 21 260 0.0 0.0 0.00 0.00 0.00 95 1006.8
20260831124517 21 225 0.0 0.0 0.00 0.00 0.00 95 1006.6
20260831123013 21 227 0.0 0.0 0.00 0.00 0.00 95 1006.3
20260831121512 21 226 0.0 0.0 0.00 0.00 0.00 95 1006.1
20260831120012 21 229 0.0 0.0 0.00 0.00 0.00 95 1006.0
20260831114511 21 229 0.0 0.0 0.00 0.00 0.00 95 1005.7
20260831113009 21 228 0.0 0.0 0.00 0.00 0.00 95 1005.8
20260831111507 21 221 0.0 0.0 0.00 0.00 0.00 94 1005.7
20260831110005 21 221 0.0 0.0 0.00 0.00 0.00 94 1005.2
20260831104512 21 220 0.0 0.0 0.00 0.00 0.00 94 1005.1
20260831103001 21 223 0.0 0.0 0.00 0.00 0.00 94 1005.1
20260831101602 21 213 0.0 0.0 0.00 0.00 0.00 94 1005.2
20260831100119 21 194 0.0 0.0 0.00 0.00 0.00 94 1005.3
20260831094559 21 204 0.0 0.0 0.00 0.00 0.00 94 1005.1
20260831093056 21 219 0.0 0.0 0.00 0.00 0.00 93 1005.0
20260831091600 21 202 0.0 0.0 0.00 0.00 0.00 93 1005.0
20260831090054 21 215 0.0 0.0 0.00 0.00 0.00 93 1005.0
20260831084631 21 171 0.0 0.0 0.00 0.00 0.00 93 1005.0
20260831083053 21 192 0.0 0.0 0.00 0.00 0.00 93 1004.9
20260831081549 22 214 0.0 0.0 0.00 0.00 0.00 92 1005.0
20260831080057 22 201 0.0 0.0 0.00 0.00 0.00 92 1004.8
20260831074558 22 178 0.0 0.0 0.00 0.00 0.00 92 1004.7
20260831073044 22 180 0.0 0.0 0.00 0.00 0.00 91 1004.8
20260831071549 22 186 0.0 0.0 0.00 0.00 0.00 91 1004.8
20260831070041 22 109 0.0 0.0 0.00 0.00 0.00 91 1004.9
20260831064540 22 148 0.0 0.0 0.00 0.00 0.00 91 1005.0
20260831063013 22 146 0.0 0.0 0.00 0.00 0.00 90 1005.0
20260831061506 22 132 0.0 0.0 0.00 0.00 0.00 90 1005.3
20260831060004 22 154 0.0 0.0 0.00 0.00 0.00 90 1005.4
20260831054501 22 131 0.0 0.0 0.00 0.00 0.00 90 1005.6
20260831053119 22 123 0.0 0.0 0.00 0.00 0.00 90 1005.6
20260831051557 22 134 0.0 0.0 0.00 0.00 0.00 89 1005.6
20260831050109 22 127 0.0 0.0 0.00 0.00 0.00 88 1006.1
20260831044524 22 147 0.0 0.0 0.00 0.00 0.00 88 1006.3
20260831043034 23 131 0.0 0.0 0.00 0.00 0.00 87 1006.4
20260831041521 23 163 0.0 0.0 0.00 0.00 0.00 87 1006.5
20260831040021 23 144 0.0 0.0 0.00 0.00 0.00 86 1006.3
20260831034521 23 144 0.0 0.0 0.00 0.00 0.00 85 1006.2
20260831033021 23 155 0.0 0.0 0.00 0.00 0.00 84 1006.3
20260831031517 23 173 0.0 0.0 0.00 0.00 0.00 83 1006.2
20260831030016 24 140 0.0 0.0 0.00 0.00 0.00 82 1006.2
20260831024523 24 188 0.0 0.0 0.00 0.00 0.00 81 1005.9